Sanborn, NY

9:12 PM EST on February 23, 2017 (GMT -0500)
Niagara Falls International

Weather History for KIAG - April, 2014

Change the Weather History Date:

Thursday, April 24, 2014

  Actual Average Record
Temperature  
Mean Temperature 42 °F -  
Max Temperature 53 °F 56 °F 78 °F (1990)
Min Temperature 32 °F 35 °F 26 °F (2003)
Degree Days  
Heating Degree Days 23    
Moisture  
Dew Point 19 °F    
Average Humidity 44    
Maximum Humidity 66    
Minimum Humidity 23    
Precipitation  
Precipitation 0.00 in - - ()
Sea Level Pressure  
Sea Level Pressure 30.13 in    
Wind  
Wind Speed 8 mph (NNW)    
Max Wind Speed 13 mph    
Max Gust Speed -    
Visibility 10 miles    
Events      
Averages and records for this station are not official NWS values.
T = Trace of Precipitation, MM = Missing Value Source: NWS Daily Summary

Daily Weather History Graph

Daily Weather History Graph

Search for Another Location

Airport or City:

Trip Planner

Search our weather history database for the weather conditions in past years. The results will help you decide how hot, cold, wet, or windy it might be!

Date:

Astronomy

Apr. 24, 2014 Rise Set
Actual Time 6:19 AM EDT 8:08 PM EDT
Civil Twilight 5:49 AM EDT 8:39 PM EDT
Nautical Twilight 5:12 AM EDT 9:16 PM EDT
Astronomical Twilight 4:32 AM EDT 9:56 PM EDT
Moon 3:37 AM EDT 3:14 PM EDT
Length of Visible Light 14h 50m
Length of Day
13h 49m
Waning Crescent, 24% of the Moon is Illuminated
Apr 24
Waning Crescent
Apr 29
New
May 6
First Quarter
May 14
Full
May 21
Last Quarter

Hourly Weather History & Observations

Time (EDT) Temp. Windchill Dew Point Humidity Pressure Visibility Wind Dir Wind Speed Gust Speed Precip Events Conditions
12:53 AM 36.0 °F 29.0 °F 24.1 °F 62% 30.11 in 10.0 mi WNW 9.2 mph - N/A   Clear
1:53 AM 33.1 °F 26.1 °F 23.0 °F 66% 30.12 in 10.0 mi WNW 8.1 mph - N/A   Clear
2:53 AM 34.0 °F 27.2 °F 21.9 °F 61% 30.10 in 10.0 mi NW 8.1 mph - N/A   Clear
3:53 AM 32.0 °F 26.4 °F 21.0 °F 64% 30.11 in 10.0 mi NW 5.8 mph - N/A   Clear
4:53 AM 32.0 °F 25.6 °F 21.9 °F 66% 30.12 in 10.0 mi NNW 6.9 mph - N/A   Clear
5:53 AM 32.0 °F 24.2 °F 21.9 °F 66% 30.14 in 10.0 mi NW 9.2 mph - N/A   Clear
6:53 AM 33.1 °F 26.1 °F 23.0 °F 66% 30.17 in 10.0 mi NW 8.1 mph - N/A   Clear
7:03 AM 34.0 °F 27.2 °F 23.0 °F 64% 30.13 in 10.0 mi NW 8.1 mph - N/A   Scattered Clouds
7:53 AM 37.0 °F 31.6 °F 25.0 °F 62% 30.17 in 10.0 mi North 6.9 mph - N/A   Scattered Clouds
8:53 AM 42.1 °F 35.2 °F 21.0 °F 43% 30.18 in 10.0 mi NNW 12.7 mph - N/A   Scattered Clouds
9:53 AM 44.1 °F 38.6 °F 18.0 °F 35% 30.19 in 10.0 mi NNE 10.4 mph - N/A   Scattered Clouds
10:53 AM 46.0 °F 40.6 °F 14.0 °F 28% 30.19 in 10.0 mi North 11.5 mph - N/A   Scattered Clouds
11:53 AM 48.0 °F - 12.0 °F 24% 30.18 in 10.0 mi NNE 12.7 mph - N/A   Scattered Clouds
12:53 PM 48.9 °F - 15.1 °F 26% 30.18 in 10.0 mi North 4.6 mph - N/A   Partly Cloudy
1:53 PM 48.9 °F - 14.0 °F 25% 30.17 in 10.0 mi NNW 9.2 mph - N/A   Scattered Clouds
2:53 PM 50.0 °F - 14.0 °F 24% 30.14 in 10.0 mi WNW 8.1 mph - N/A   Scattered Clouds
3:53 PM 50.0 °F - 14.0 °F 24% 30.12 in 10.0 mi WNW 9.2 mph - N/A   Partly Cloudy
4:53 PM 51.1 °F - 15.1 °F 24% 30.11 in 10.0 mi NW 9.2 mph - N/A   Partly Cloudy
5:53 PM 52.0 °F - 15.1 °F 23% 30.10 in 10.0 mi NNW 8.1 mph - N/A   Partly Cloudy
6:53 PM 52.0 °F - 16.0 °F 24% 30.08 in 10.0 mi North 5.8 mph - N/A   Partly Cloudy
7:53 PM 50.0 °F - 21.0 °F 32% 30.09 in 10.0 mi Calm Calm - N/A   Scattered Clouds
8:53 PM 45.0 °F 41.2 °F 23.0 °F 42% 30.08 in 10.0 mi SW 6.9 mph - N/A   Scattered Clouds
9:53 PM 45.0 °F - 19.0 °F 36% 30.08 in 10.0 mi Calm Calm - N/A   Scattered Clouds
10:53 PM 42.1 °F 39.2 °F 26.1 °F 53% 30.06 in 10.0 mi ENE 4.6 mph - N/A   Mostly Cloudy
11:53 PM 41.0 °F 37.1 °F 25.0 °F 53% 30.04 in 10.0 mi East 5.8 mph - N/A   Clear